Weather History for Hatteras, NC

Change the Weather History Date:

Tuesday, July 30, 2013

  Actual Average Record
Temperature  
Mean Temperature 81 °F 79 °F  
Max Temperature 87 °F 85 °F 94 °F (2011)
Min Temperature 74 °F 74 °F 65 °F (1987)
Degree Days  
Heating Degree Days 0 0  
Month to date heating degree days 0 0  
Since 1 June heating degree days 0 3  
Since 1 July heating degree days 0 0  
Cooling Degree Days 16 14  
Month to date cooling degree days 494 417  
Year to date cooling degree days 1056 868  
Since 1 June cooling degree days 894 725  
Growing Degree Days 28 (Base 50)    
Moisture  
Dew Point 70 °F    
Average Humidity 74    
Maximum Humidity 93    
Minimum Humidity 55    
Precipitation  
Precipitation 0.10 in 0.18 in 2.42 in (1957)
Month to date precipitation 1.88 4.81  
Year to date precipitation 27.43 30.08  
Snow  
Snow 0.00 in - - ()
Month to date snowfall 0.0  
Since 1 July snowfall 0.0  
Snow Depth 0.00 in    
Sea Level Pressure  
Sea Level Pressure 30.16 in    
Wind  
Wind Speed 5 mph (ENE)    
Max Wind Speed 10 mph    
Max Gust Speed 15 mph    
Visibility 9 miles    
Events Rain    
T = Trace of Precipitation, MM = Missing Value Source: NWS Daily Summary

Daily Weather History Graph

Daily Weather History Graph

Search for Another Location

Airport:

Trip Planner

Search our weather history database for the weather conditions in past years. The results will help you decide how hot, cold, wet, or windy it might be!

Date:

Astronomy

Jul. 30, 2013 Rise Set
Actual Time 6:10 AM EDT 8:07 PM EDT
Civil Twilight 5:42 AM EDT 8:35 PM EDT
Nautical Twilight 5:07 AM EDT 9:09 PM EDT
Astronomical Twilight 4:31 AM EDT 9:45 PM EDT
Moon 12:24 AM EDT (7/30) 2:25 PM EDT (7/30)
Length of Visible Light 14h 53m
Length of Day
13h 57m
Last Quarter, 41% of the Moon is Illuminated
Jul 30
Last Quarter
Aug 6
New
Aug 14
First Quarter
Aug 20
Full
Aug 28
Last Quarter

Hourly Weather History & Observations

Time (EDT) Temp. Heat Index Dew Point Humidity Pressure Visibility Wind Dir Wind Speed Gust Speed Precip Events Conditions
12:51 AM 80.1 °F 84.2 °F 73.0 °F 79% 30.15 in 10.0 mi WNW 5.8 mph - N/A   Partly Cloudy
1:51 AM 81.0 °F 85.8 °F 73.0 °F 77% 30.15 in 10.0 mi WNW 5.8 mph - N/A   Overcast
2:41 AM 80.6 °F 85.4 °F 73.4 °F 79% 30.14 in 10.0 mi WNW 4.6 mph - N/A   Mostly Cloudy
2:51 AM 80.1 °F 84.2 °F 73.0 °F 79% 30.14 in 10.0 mi NW 4.6 mph - N/A   Overcast
3:29 AM 78.8 °F - 73.4 °F 83% 30.15 in 2.5 mi Variable 4.6 mph - 0.02 in Rain Heavy Rain
3:42 AM 77.0 °F - 73.4 °F 89% 30.15 in 8.0 mi Variable 3.5 mph - 0.09 in Rain Light Rain
3:51 AM 77.0 °F - 73.0 °F 88% 30.14 in 6.0 mi Variable 3.5 mph - 0.10 in Rain Light Rain
4:51 AM 75.0 °F - 73.0 °F 94% 30.15 in 8.0 mi ENE 3.5 mph - 0.00 in   Mostly Cloudy
5:51 AM 73.9 °F - 71.1 °F 91% 30.15 in 10.0 mi ENE 4.6 mph - N/A   Mostly Cloudy
6:51 AM 75.0 °F - 71.1 °F 87% 30.17 in 10.0 mi ENE 6.9 mph - N/A   Scattered Clouds
7:51 AM 77.0 °F - 71.1 °F 82% 30.18 in 10.0 mi East 6.9 mph - N/A   Scattered Clouds
8:51 AM 79.0 °F - 68.0 °F 69% 30.19 in 10.0 mi East 5.8 mph - N/A   Overcast
9:51 AM 79.0 °F - 68.0 °F 69% 30.20 in 10.0 mi East 4.6 mph - N/A   Mostly Cloudy
10:51 AM 80.1 °F 82.7 °F 68.0 °F 67% 30.21 in 10.0 mi ENE 4.6 mph - N/A   Overcast
11:51 AM 84.9 °F 88.2 °F 68.0 °F 57% 30.19 in 10.0 mi Variable 4.6 mph - N/A   Partly Cloudy
12:51 PM 84.0 °F 87.0 °F 68.0 °F 58% 30.18 in 10.0 mi ENE 6.9 mph - N/A   Overcast
1:51 PM 84.9 °F 87.1 °F 66.0 °F 53% 30.18 in 10.0 mi Variable 6.9 mph - N/A   Scattered Clouds
2:51 PM 84.0 °F 86.3 °F 66.0 °F 55% 30.16 in 10.0 mi ENE 6.9 mph - N/A   Mostly Cloudy
3:51 PM 82.9 °F 85.4 °F 66.9 °F 58% 30.15 in 10.0 mi ENE 5.8 mph - N/A   Overcast
4:51 PM 82.0 °F 85.5 °F 69.1 °F 65% 30.15 in 10.0 mi NE 8.1 mph - N/A   Overcast
5:51 PM 82.0 °F 85.9 °F 70.0 °F 67% 30.14 in 10.0 mi ENE 4.6 mph - N/A   Mostly Cloudy
6:51 PM 80.1 °F 83.2 °F 70.0 °F 71% 30.15 in 10.0 mi Variable 4.6 mph - N/A   Mostly Cloudy
7:51 PM 79.0 °F - 71.1 °F 77% 30.16 in 10.0 mi ENE 3.5 mph - N/A   Overcast
8:51 PM 79.0 °F - 71.1 °F 77% 30.15 in 10.0 mi East 3.5 mph - N/A   Overcast
9:51 PM 78.1 °F - 71.1 °F 79% 30.16 in 10.0 mi East 3.5 mph - N/A   Overcast
10:51 PM 77.0 °F - 69.1 °F 76% 30.16 in 10.0 mi ENE 4.6 mph - N/A   Overcast
11:51 PM 77.0 °F - 71.1 °F 82% 30.15 in 10.0 mi East 3.5 mph - N/A   Partly Cloudy